Weather in Messina

Italy     38°10′43″N   15°32′57″E
temp.,
°C
wind,
m/s
gust,
m/s
humid.,
%
clouds,
%
prec.,
mm/h
press.,
hPa
HPBL,
m
10 april, sat
sat1023:00+9sse59640 0.0 1028349
02:00+9sse47650 0.0 1027252
05:00+8sse357185 0.0 1026120
08:00+10sse47663 0.0 1026423
11:00+14s684936 0.0 1025712
14:00+15s794857 0.0 1024553
17:00+13s795833 0.0 1023529
20:00+11sse6972100 0.0 1023380
11 april, sun
sun1123:00+11sse5107826 0.0 1023379
02:00+11sse510815 0.0 1022395
05:00+11sse6118463 0.0 1021414
08:00+12sse6117849 0.0 1021517
11:00+15s7106256 0.0 1022585
14:00+16s8116093 0.0 1021549
17:00+15s71070100 0.0 1021507
20:00+12sse61078100 0.0 1021438
12 april, mon
mon1223:00+12sse71279100 0.0 1021457
02:00+12sse7128129 0.0 1021477
05:00+12sse6128279 0.0 1020474
08:00+13sse5977100 0.0 1021432
11:00+15s71065100 0.0 1021506
14:00+16s6861100 0.0 1020436
17:00+15sse6766100 0.0 1019282
20:00+13sse5881100 0.0 1019273
13 april, tue
tue1323:00+12s588696 0.0 1020264
02:00+13sse3484100 0.0 1019120
05:00+13wsw2280100 0.0 101943
08:00+14w1273100 0.0 1019115
11:00+15wnw4473100 0.0 1019747
14:00+14nw5577100 0.1 1020814
17:00+12wnw577096 0.3 1019989
20:00+12wnw610677 0.3 1019898
14 april, wed
wed1423:00+12wnw69607 0.0 10201006
02:00+12wnw7106319 0.0 10191089
05:00+12wnw796049 0.0 10191305
08:00+12nw5756100 0.1 10201247
11:00+14wnw5660100 0.0 10211333
14:00+14wnw466217 0.1 10211182
17:00+14nw456727 0.3 10201084
20:00+11wnw237326 0.3 1020427